| time (UTC) | temp F | wind direction | speed knots | gust knots | rain 1hr in | rain 24hr in | rain mn in | humidity % | barometer mb |
| 20260508080956 | 64 | 1 | 0.9 | 4.3 | 0.00 | 0.00 | 0.00 | 53 | 1012.8 |
| 20260508080456 | 64 | 350 | 0.9 | 4.3 | 0.00 | 0.00 | 0.00 | 54 | 1013.1 |
| 20260508075959 | 64 | 14 | 1.7 | 4.3 | 0.00 | 0.00 | 0.00 | 55 | 1013.1 |
| 20260508075456 | 64 | 70 | 0.0 | 1.7 | 0.00 | 0.00 | 0.00 | 55 | 1013.0 |
| 20260508074957 | 64 | 71 | 0.0 | 1.7 | 0.00 | 0.00 | 0.00 | 55 | 1013.2 |
| 20260508073958 | 64 | 0 | 0.0 | 2.6 | 0.00 | 0.00 | 0.00 | 56 | 1013.6 |
| 20260508073456 | 64 | 344 | 0.0 | 2.6 | 0.00 | 0.00 | 0.00 | 54 | 1013.6 |
| 20260508072956 | 64 | 339 | 0.9 | 2.6 | 0.00 | 0.00 | 0.00 | 55 | 1013.4 |
| 20260508072457 | 64 | 340 | 0.0 | 2.6 | 0.00 | 0.00 | 0.00 | 56 | 1013.4 |
| 20260508071957 | 64 | 340 | 0.9 | 2.6 | 0.00 | 0.00 | 0.00 | 57 | 1013.3 |
| 20260508071456 | 64 | 56 | 0.0 | 2.6 | 0.00 | 0.00 | 0.00 | 57 | 1013.2 |
| 20260508070957 | 64 | 54 | 0.0 | 2.6 | 0.00 | 0.00 | 0.00 | 58 | 1013.5 |
| 20260508070456 | 64 | 339 | 0.9 | 4.3 | 0.00 | 0.00 | 0.00 | 58 | 1013.6 |
| 20260508065959 | 64 | 90 | 0.9 | 4.3 | 0.00 | 0.00 | 0.00 | 58 | 1013.7 |
| 20260508065457 | 64 | 10 | 0.9 | 2.6 | 0.00 | 0.00 | 0.00 | 57 | 1013.6 |
| 20260508064957 | 64 | 27 | 0.9 | 5.2 | 0.00 | 0.00 | 0.00 | 58 | 1013.5 |
| 20260508064458 | 64 | 45 | 0.9 | 5.2 | 0.00 | 0.00 | 0.00 | 58 | 1013.5 |
| 20260508063956 | 64 | 27 | 1.7 | 7.0 | 0.00 | 0.00 | 0.00 | 57 | 1012.9 |
| 20260508063456 | 64 | 110 | 1.7 | 7.0 | 0.00 | 0.00 | 0.00 | 57 | 1012.8 |
| 20260508062956 | 64 | 74 | 0.9 | 7.0 | 0.00 | 0.00 | 0.00 | 56 | 1012.8 |
| 20260508062457 | 64 | 22 | 2.6 | 7.0 | 0.00 | 0.00 | 0.00 | 56 | 1012.4 |
| 20260508061957 | 64 | 105 | 2.6 | 7.0 | 0.00 | 0.00 | 0.00 | 57 | 1012.7 |
| 20260508061457 | 64 | 113 | 2.6 | 7.0 | 0.00 | 0.00 | 0.00 | 58 | 1013.0 |
| 20260508060956 | 64 | 77 | 2.6 | 7.0 | 0.00 | 0.00 | 0.00 | 58 | 1013.2 |
| 20260508055959 | 64 | 62 | 0.0 | 0.0 | 0.00 | 0.00 | 0.00 | 59 | 1014.0 |
| 20260508055457 | 64 | 61 | 0.0 | 0.0 | 0.00 | 0.00 | 0.00 | 58 | 1014.2 |
| 20260508054957 | 64 | 61 | 0.0 | 0.0 | 0.00 | 0.00 | 0.00 | 58 | 1014.6 |
| 20260508054456 | 64 | 61 | 0.0 | 0.0 | 0.00 | 0.00 | 0.00 | 58 | 1014.7 |
| 20260508053456 | 64 | 2 | 0.0 | 2.6 | 0.00 | 0.00 | 0.00 | 58 | 1014.6 |
| 20260508052957 | 64 | 340 | 0.9 | 2.6 | 0.00 | 0.00 | 0.00 | 59 | 1014.4 |
| 20260508052456 | 64 | 332 | 0.0 | 4.3 | 0.00 | 0.00 | 0.00 | 58 | 1014.4 |
| 20260508051958 | 64 | 2 | 1.7 | 4.3 | 0.00 | 0.00 | 0.00 | 58 | 1014.5 |
| 20260508051459 | 64 | 307 | 0.0 | 4.3 | 0.00 | 0.00 | 0.00 | 57 | 1014.5 |
| 20260508050959 | 64 | 296 | 0.9 | 5.2 | 0.00 | 0.00 | 0.00 | 56 | 1014.9 |
| 20260508050456 | 64 | 347 | 1.7 | 5.2 | 0.00 | 0.00 | 0.00 | 55 | 1014.9 |
| 20260508050002 | 64 | 310 | 1.7 | 6.1 | 0.00 | 0.00 | 0.00 | 55 | 1013.5 |
| 20260508045456 | 64 | 86 | 0.0 | 6.1 | 0.00 | 0.00 | 0.00 | 56 | 1012.7 |
| 20260508044957 | 64 | 25 | 0.9 | 6.1 | 0.00 | 0.00 | 0.00 | 57 | 1012.9 |
| 20260508043957 | 64 | 93 | 1.7 | 5.2 | 0.00 | 0.00 | 0.00 | 60 | 1012.6 |
| 20260508043458 | 64 | 95 | 1.7 | 5.2 | 0.00 | 0.00 | 0.00 | 61 | 1012.5 |
| 20260508042457 | 64 | 118 | 2.6 | 5.2 | 0.00 | 0.00 | 0.00 | 63 | 1012.8 |
| 20260508041957 | 64 | 124 | 0.9 | 7.0 | 0.00 | 0.00 | 0.00 | 63 | 1013.1 |
| 20260508041457 | 65 | 90 | 2.6 | 7.0 | 0.00 | 0.00 | 0.00 | 64 | 1013.1 |
| 20260508040957 | 65 | 81 | 0.9 | 7.0 | 0.00 | 0.00 | 0.00 | 64 | 1013.5 |
| 20260508040456 | 65 | 98 | 1.7 | 6.1 | 0.00 | 0.00 | 0.00 | 65 | 1013.5 |
| 20260508035957 | 65 | 80 | 1.7 | 5.2 | 0.00 | 0.00 | 0.00 | 66 | 1013.3 |
| 20260508034959 | 65 | 78 | 1.7 | 5.2 | 0.00 | 0.00 | 0.00 | 67 | 1013.7 |
| 20260508034456 | 65 | 30 | 0.9 | 7.8 | 0.00 | 0.00 | 0.00 | 67 | 1013.8 |
| 20260508033957 | 65 | 88 | 2.6 | 7.8 | 0.00 | 0.00 | 0.00 | 68 | 1014.0 |
| 20260508033456 | 65 | 2 | 1.7 | 6.1 | 0.00 | 0.00 | 0.00 | 68 | 1014.1 |
| 20260508032957 | 65 | 42 | 1.7 | 7.8 | 0.00 | 0.00 | 0.00 | 68 | 1014.1 |
| 20260508032459 | 65 | 66 | 0.9 | 7.8 | 0.00 | 0.00 | 0.00 | 68 | 1014.1 |
| 20260508031957 | 65 | 13 | 0.9 | 7.8 | 0.00 | 0.00 | 0.00 | 68 | 1014.3 |
| 20260508031459 | 65 | 23 | 0.9 | 7.0 | 0.00 | 0.00 | 0.00 | 67 | 1014.5 |
| 20260508030957 | 65 | 11 | 3.5 | 7.0 | 0.00 | 0.00 | 0.00 | 67 | 1014.4 |
| 20260508030457 | 65 | 11 | 0.9 | 4.3 | 0.00 | 0.00 | 0.00 | 67 | 1014.2 |
| 20260508025456 | 65 | 22 | 1.7 | 4.3 | 0.00 | 0.00 | 0.00 | 67 | 1014.2 |
| 20260508024957 | 65 | 3 | 0.9 | 4.3 | 0.00 | 0.00 | 0.00 | 67 | 1014.0 |
| 20260508024456 | 66 | 1 | 1.7 | 4.3 | 0.00 | 0.00 | 0.00 | 67 | 1013.9 |
| 20260508023957 | 66 | 101 | 0.0 | 1.7 | 0.00 | 0.00 | 0.00 | 67 | 1013.9 |
| 20260508023457 | 66 | 101 | 0.0 | 1.7 | 0.00 | 0.00 | 0.00 | 68 | 1013.6 |
| 20260508022957 | 66 | 103 | 0.0 | 2.6 | 0.00 | 0.00 | 0.00 | 68 | 1013.4 |
| 20260508022457 | 66 | 103 | 0.0 | 2.6 | 0.00 | 0.00 | 0.00 | 68 | 1013.2 |
| 20260508021957 | 66 | 103 | 0.9 | 2.6 | 0.00 | 0.00 | 0.00 | 69 | 1013.2 |
| 20260508021459 | 66 | 86 | 0.0 | 1.7 | 0.00 | 0.00 | 0.00 | 69 | 1013.4 |
| 20260508020958 | 66 | 78 | 0.0 | 2.6 | 0.00 | 0.00 | 0.00 | 69 | 1013.4 |
| 20260508020456 | 66 | 78 | 0.9 | 5.2 | 0.00 | 0.00 | 0.00 | 70 | 1013.0 |
| 20260508015957 | 66 | 106 | 0.0 | 5.2 | 0.00 | 0.00 | 0.00 | 70 | 1012.8 |
| 20260508015456 | 66 | 142 | 2.6 | 7.0 | 0.00 | 0.00 | 0.00 | 70 | 1012.7 |
| 20260508014456 | 66 | 103 | 1.7 | 7.0 | 0.00 | 0.00 | 0.00 | 71 | 1012.8 |
| 20260508013957 | 66 | 58 | 1.7 | 7.8 | 0.00 | 0.00 | 0.00 | 71 | 1012.6 |
| 20260508013457 | 66 | 89 | 1.7 | 7.8 | 0.00 | 0.00 | 0.00 | 71 | 1012.8 |
| 20260508012958 | 66 | 81 | 1.7 | 7.8 | 0.00 | 0.00 | 0.00 | 72 | 1012.7 |
| 20260508012458 | 66 | 109 | 0.0 | 7.8 | 0.00 | 0.00 | 0.00 | 72 | 1012.2 |
| 20260508011459 | 66 | 103 | 6.1 | 10.4 | 0.00 | 0.00 | 0.00 | 72 | 1011.8 |
| 20260508010956 | 67 | 99 | 4.3 | 10.4 | 0.00 | 0.00 | 0.00 | 73 | 1011.7 |
| 20260508010457 | 67 | 87 | 3.5 | 10.4 | 0.00 | 0.00 | 0.00 | 73 | 1011.4 |
| 20260508005957 | 67 | 130 | 5.2 | 12.2 | 0.00 | 0.00 | 0.00 | 73 | 1011.3 |
| 20260508005457 | 67 | 136 | 6.1 | 13.0 | 0.00 | 0.00 | 0.00 | 73 | 1011.3 |
| 20260508004959 | 67 | 132 | 3.5 | 13.0 | 0.00 | 0.00 | 0.00 | 72 | 1011.4 |
| 20260508004457 | 68 | 123 | 2.6 | 13.0 | 0.00 | 0.00 | 0.00 | 73 | 1011.6 |
| 20260508003959 | 68 | 102 | 3.5 | 13.0 | 0.00 | 0.00 | 0.00 | 73 | 1011.8 |
| 20260508003457 | 68 | 90 | 5.2 | 13.0 | 0.00 | 0.00 | 0.00 | 72 | 1012.0 |
| 20260508002957 | 68 | 96 | 4.3 | 7.8 | 0.00 | 0.00 | 0.00 | 72 | 1012.1 |
| 20260508002457 | 68 | 110 | 2.6 | 7.8 | 0.00 | 0.00 | 0.00 | 73 | 1012.3 |
| 20260508002001 | 68 | 90 | 4.3 | 7.8 | 0.00 | 0.00 | 0.00 | 72 | 1013.0 |
| 20260508001457 | 69 | 111 | 2.6 | 7.0 | 0.00 | 0.00 | 0.00 | 72 | 1013.0 |
| 20260508000957 | 69 | 88 | 2.6 | 8.7 | 0.00 | 0.00 | 0.00 | 72 | 1013.0 |
| 20260508000457 | 69 | 26 | 3.5 | 8.7 | 0.00 | 0.00 | 0.00 | 72 | 1013.4 |
| 20260507234957 | 69 | 94 | 2.6 | 6.1 | 0.00 | 0.00 | 0.00 | 72 | 1013.8 |
| 20260507234456 | 69 | 90 | 0.9 | 6.1 | 0.00 | 0.00 | 0.00 | 72 | 1013.8 |
| 20260507233959 | 69 | 106 | 0.9 | 7.8 | 0.00 | 0.00 | 0.00 | 72 | 1013.8 |
| 20260507233457 | 69 | 22 | 1.7 | 7.8 | 0.00 | 0.00 | 0.00 | 72 | 1013.7 |
| 20260507233000 | 69 | 100 | 0.9 | 8.7 | 0.00 | 0.00 | 0.00 | 71 | 1013.6 |
| 20260507231958 | 70 | 51 | 1.7 | 10.4 | 0.00 | 0.00 | 0.00 | 71 | 1013.9 |
| 20260507231458 | 70 | 115 | 1.7 | 10.4 | 0.00 | 0.00 | 0.00 | 71 | 1013.9 |
| 20260507230958 | 70 | 62 | 3.5 | 10.4 | 0.00 | 0.00 | 0.00 | 70 | 1013.7 |
| 20260507230457 | 70 | 25 | 2.6 | 7.8 | 0.00 | 0.00 | 0.00 | 71 | 1013.7 |
| 20260507225456 | 69 | 54 | 0.9 | 7.0 | 0.00 | 0.01 | 0.00 | 71 | 1014.0 |
| 20260507224456 | 70 | 119 | 3.5 | 7.8 | 0.00 | 0.01 | 0.00 | 71 | 1014.0 |
| 20260507223957 | 70 | 97 | 2.6 | 7.0 | 0.00 | 0.01 | 0.00 | 71 | 1014.0 |
| 20260507222957 | 69 | 91 | 2.6 | 11.3 | 0.00 | 0.01 | 0.00 | 72 | 1014.1 |
| 20260507222457 | 69 | 96 | 4.3 | 11.3 | 0.00 | 0.01 | 0.00 | 71 | 1014.0 |
| 20260507221457 | 69 | 67 | 0.9 | 6.1 | 0.00 | 0.01 | 0.00 | 72 | 1014.1 |
| 20260507220957 | 69 | 86 | 1.7 | 6.1 | 0.00 | 0.01 | 0.00 | 72 | 1014.3 |
| 20260507220457 | 69 | 70 | 0.9 | 7.8 | 0.00 | 0.01 | 0.00 | 72 | 1014.5 |
| 20260507215957 | 69 | 19 | 3.5 | 7.8 | 0.00 | 0.01 | 0.00 | 72 | 1014.4 |
| 20260507214958 | 69 | 39 | 3.5 | 7.8 | 0.00 | 0.01 | 0.00 | 72 | 1014.4 |
| 20260507214500 | 69 | 104 | 2.6 | 11.3 | 0.00 | 0.01 | 0.00 | 71 | 1014.4 |
| 20260507213959 | 69 | 350 | 0.9 | 11.3 | 0.00 | 0.01 | 0.00 | 71 | 1014.6 |
| 20260507213457 | 69 | 70 | 2.6 | 11.3 | 0.00 | 0.01 | 0.00 | 71 | 1014.4 |
| 20260507212457 | 69 | 334 | 1.7 | 8.7 | 0.00 | 0.01 | 0.00 | 71 | 1014.5 |
| 20260507211957 | 69 | 68 | 2.6 | 10.4 | 0.00 | 0.01 | 0.00 | 71 | 1014.5 |
| 20260507211457 | 69 | 9 | 2.6 | 10.4 | 0.00 | 0.01 | 0.00 | 71 | 1014.2 |
| 20260507210457 | 68 | 35 | 2.6 | 8.7 | 0.00 | 0.01 | 0.00 | 70 | 1014.1 |
| 20260507205456 | 68 | 8 | 4.3 | 8.7 | 0.00 | 0.01 | 0.00 | 71 | 1014.6 |
| 20260507204957 | 69 | 13 | 4.3 | 8.7 | 0.00 | 0.01 | 0.00 | 71 | 1014.6 |
| 20260507204457 | 69 | 54 | 2.6 | 8.7 | 0.00 | 0.01 | 0.00 | 70 | 1014.7 |
| 20260507203958 | 69 | 44 | 1.7 | 7.8 | 0.00 | 0.01 | 0.00 | 70 | 1014.4 |
| 20260507203501 | 68 | 88 | 2.6 | 8.7 | 0.00 | 0.01 | 0.00 | 67 | 1014.1 |
| 20260507202457 | 68 | 85 | 4.3 | 11.3 | 0.00 | 0.01 | 0.00 | 66 | 1014.4 |
| 20260507202000 | 68 | 96 | 3.5 | 10.4 | 0.00 | 0.01 | 0.00 | 63 | 1014.4 |
| 20260507201457 | 68 | 87 | 1.7 | 7.0 | 0.00 | 0.01 | 0.00 | 60 | 1014.7 |
| 20260507200456 | 67 | 52 | 1.7 | 7.8 | 0.00 | 0.01 | 0.00 | 61 | 1014.8 |
| 20260507195957 | 67 | 91 | 3.5 | 7.8 | 0.00 | 0.01 | 0.00 | 58 | 1014.8 |
| 20260507195456 | 67 | 75 | 1.7 | 11.3 | 0.00 | 0.01 | 0.00 | 51 | 1014.6 |
| 20260507194957 | 67 | 77 | 4.3 | 11.3 | 0.00 | 0.01 | 0.00 | 54 | 1014.7 |
| 20260507194457 | 67 | 60 | 3.5 | 10.4 | 0.00 | 0.01 | 0.00 | 46 | 1014.5 |
| 20260507193958 | 67 | 73 | 5.2 | 10.4 | 0.00 | 0.01 | 0.00 | 37 | 1014.6 |
| 20260507193457 | 66 | 85 | 4.3 | 10.4 | 0.00 | 0.01 | 0.00 | 22 | 1014.5 |
| 20260507192958 | 66 | 105 | 4.3 | 10.4 | 0.00 | 0.01 | 0.00 | 19 | 1014.1 |
| 20260507192457 | 66 | 91 | 4.3 | 10.4 | 0.00 | 0.01 | 0.00 | 17 | 1014.1 |
| 20260507191959 | 66 | 77 | 2.6 | 8.7 | 0.00 | 0.01 | 0.00 | 17 | 1014.5 |
| 20260507191456 | 66 | 82 | 4.3 | 8.7 | 0.00 | 0.01 | 0.00 | 17 | 1014.5 |
| 20260507191000 | 66 | 104 | 2.6 | 8.7 | 0.00 | 0.01 | 0.00 | 17 | 1014.9 |
| 20260507190457 | 66 | 93 | 1.7 | 11.3 | 0.00 | 0.01 | 0.00 | 17 | 1014.9 |
| 20260507190002 | 65 | 95 | 2.6 | 11.3 | 0.00 | 0.01 | 0.00 | 17 | 1014.8 |
| 20260507185457 | 65 | 51 | 4.3 | 11.3 | 0.00 | 0.01 | 0.00 | 17 | 1015.2 |
| 20260507184957 | 65 | 64 | 3.5 | 7.8 | 0.00 | 0.01 | 0.00 | 17 | 1015.4 |
| 20260507184457 | 65 | 107 | 2.6 | 7.8 | 0.00 | 0.01 | 0.00 | 17 | 1015.3 |
| 20260507183957 | 65 | 66 | 1.7 | 6.1 | 0.00 | 0.01 | 0.00 | 17 | 1015.4 |
| 20260507183456 | 65 | 72 | 0.9 | 6.1 | 0.00 | 0.01 | 0.00 | 17 | 1016.0 |
| 20260507182957 | 65 | 64 | 2.6 | 6.1 | 0.00 | 0.01 | 0.00 | 17 | 1016.5 |
| 20260507182457 | 65 | 103 | 1.7 | 6.1 | 0.00 | 0.01 | 0.00 | 23 | 1016.4 |
| 20260507181957 | 65 | 34 | 0.9 | 4.3 | 0.00 | 0.01 | 0.00 | 25 | 1016.1 |
| 20260507181457 | 65 | 73 | 0.9 | 6.1 | 0.00 | 0.01 | 0.00 | 26 | 1016.3 |
| 20260507180957 | 65 | 80 | 0.9 | 7.8 | 0.00 | 0.01 | 0.00 | 27 | 1016.2 |
| 20260507180857 | 65 | 89 | 0.9 | 7.8 | 0.00 | 0.01 | 0.00 | 28 | 1016.2 |
| 20260507180458 | 65 | 64 | 2.6 | 7.8 | 0.00 | 0.01 | 0.00 | 32 | 1016.1 |
| 20260507175457 | 65 | 44 | 4.3 | 10.4 | 0.00 | 0.01 | 0.00 | 25 | 1015.9 |
| 20260507174957 | 65 | 111 | 1.7 | 10.4 | 0.00 | 0.01 | 0.00 | 17 | 1015.9 |
| 20260507174500 | 65 | 70 | 4.3 | 10.4 | 0.00 | 0.01 | 0.00 | 22 | 1016.0 |
| 20260507173957 | 64 | 54 | 2.6 | 10.4 | 0.00 | 0.01 | 0.00 | 22 | 1016.0 |
| 20260507173457 | 64 | 41 | 5.2 | 11.3 | 0.00 | 0.01 | 0.00 | 23 | 1016.1 |
| 20260507172958 | 64 | 61 | 2.6 | 11.3 | 0.00 | 0.01 | 0.00 | 17 | 1016.2 |
| 20260507172500 | 64 | 65 | 2.6 | 8.7 | 0.00 | 0.01 | 0.00 | 17 | 1016.1 |
| 20260507171958 | 64 | 76 | 2.6 | 8.7 | 0.00 | 0.01 | 0.00 | 17 | 1016.3 |
| 20260507170958 | 64 | 94 | 4.3 | 8.7 | 0.00 | 0.01 | 0.00 | 17 | 1016.4 |
| 20260507165957 | 63 | 54 | 1.7 | 11.3 | 0.00 | 0.01 | 0.00 | 17 | 1016.6 |
| 20260507165457 | 63 | 50 | 2.6 | 7.8 | 0.00 | 0.01 | 0.00 | 17 | 1016.7 |
| 20260507164459 | 63 | 39 | 2.6 | 11.3 | 0.00 | 0.01 | 0.00 | 17 | 1016.5 |
| 20260507163958 | 63 | 71 | 3.5 | 11.3 | 0.00 | 0.01 | 0.00 | 17 | 1016.4 |
| 20260507163500 | 63 | 103 | 3.5 | 8.7 | 0.00 | 0.01 | 0.00 | 17 | 1016.4 |
| 20260507162959 | 63 | 30 | 2.6 | 10.4 | 0.00 | 0.01 | 0.00 | 17 | 1016.2 |
| 20260507162500 | 63 | 87 | 4.3 | 10.4 | 0.00 | 0.01 | 0.00 | 17 | 1016.4 |
| 20260507160959 | 63 | 71 | 3.5 | 10.4 | 0.00 | 0.01 | 0.00 | 17 | 1016.4 |
| 20260507160457 | 63 | 44 | 2.6 | 13.0 | 0.00 | 0.01 | 0.00 | 17 | 1016.3 |
| 20260507155957 | 63 | 42 | 5.2 | 13.9 | 0.00 | 0.01 | 0.00 | 17 | 1016.3 |
| 20260507154457 | 62 | 51 | 5.2 | 13.0 | 0.00 | 0.01 | 0.00 | 17 | 1016.1 |
| 20260507153958 | 63 | 67 | 5.2 | 13.0 | 0.00 | 0.01 | 0.00 | 17 | 1016.3 |
| 20260507153457 | 63 | 58 | 2.6 | 12.2 | 0.00 | 0.01 | 0.00 | 17 | 1016.3 |
| 20260507152957 | 63 | 31 | 4.3 | 12.2 | 0.00 | 0.01 | 0.00 | 17 | 1016.2 |
| 20260507152457 | 63 | 49 | 2.6 | 11.3 | 0.00 | 0.01 | 0.00 | 17 | 1016.1 |
| 20260507151958 | 63 | 70 | 6.1 | 12.2 | 0.00 | 0.01 | 0.00 | 17 | 1016.1 |
| 20260507150958 | 62 | 24 | 3.5 | 15.6 | 0.00 | 0.01 | 0.00 | 17 | 1016.0 |
| 20260507150458 | 63 | 18 | 4.3 | 11.3 | 0.00 | 0.01 | 0.00 | 17 | 1015.9 |
| 20260507145957 | 63 | 47 | 5.2 | 12.2 | 0.00 | 0.01 | 0.00 | 17 | 1015.7 |
| 20260507145457 | 63 | 46 | 5.2 | 12.2 | 0.00 | 0.01 | 0.00 | 17 | 1015.7 |
| 20260507145001 | 62 | 26 | 5.2 | 11.3 | 0.00 | 0.01 | 0.00 | 17 | 1015.6 |
| 20260507143957 | 61 | 353 | 3.5 | 12.2 | 0.00 | 0.01 | 0.00 | 17 | 1015.8 |
| 20260507143457 | 61 | 41 | 4.3 | 12.2 | 0.00 | 0.01 | 0.00 | 17 | 1015.9 |
| 20260507142957 | 61 | 20 | 2.6 | 10.4 | 0.00 | 0.01 | 0.00 | 17 | 1016.1 |
| 20260507142500 | 61 | 60 | 5.2 | 11.3 | 0.00 | 0.01 | 0.00 | 17 | 1016.1 |
| 20260507141958 | 61 | 57 | 2.6 | 11.3 | 0.00 | 0.01 | 0.00 | 17 | 1016.0 |
| 20260507141457 | 61 | 357 | 5.2 | 11.3 | 0.00 | 0.01 | 0.00 | 17 | 1015.6 |
| 20260507140457 | 61 | 9 | 2.6 | 12.2 | 0.00 | 0.01 | 0.00 | 17 | 1015.7 |
| 20260507135457 | 61 | 356 | 5.2 | 13.0 | 0.00 | 0.01 | 0.00 | 17 | 1015.8 |
| 20260507134959 | 61 | 14 | 5.2 | 13.0 | 0.00 | 0.01 | 0.00 | 17 | 1016.2 |
| 20260507134458 | 61 | 341 | 2.6 | 12.2 | 0.00 | 0.01 | 0.00 | 17 | 1016.0 |
| 20260507133957 | 61 | 8 | 3.5 | 12.2 | 0.00 | 0.01 | 0.00 | 17 | 1016.0 |
| 20260507133458 | 61 | 47 | 3.5 | 10.4 | 0.00 | 0.01 | 0.00 | 17 | 1016.2 |
| 20260507132958 | 61 | 359 | 2.6 | 11.3 | 0.00 | 0.01 | 0.00 | 17 | 1016.0 |
| 20260507132459 | 61 | 28 | 4.3 | 11.3 | 0.00 | 0.01 | 0.00 | 17 | 1015.6 |
| 20260507131958 | 61 | 64 | 3.5 | 10.4 | 0.00 | 0.01 | 0.00 | 17 | 1015.6 |
| 20260507131500 | 61 | 3 | 5.2 | 10.4 | 0.00 | 0.01 | 0.00 | 17 | 1015.6 |
| 20260507130959 | 61 | 51 | 3.5 | 7.8 | 0.00 | 0.01 | 0.00 | 17 | 1015.7 |
| 20260507125957 | 61 | 354 | 2.6 | 7.8 | 0.00 | 0.01 | 0.00 | 17 | 1015.8 |
| 20260507125000 | 62 | 356 | 2.6 | 7.8 | 0.00 | 0.01 | 0.00 | 17 | 1015.9 |
| 20260507124457 | 62 | 23 | 1.7 | 8.7 | 0.00 | 0.01 | 0.00 | 17 | 1016.0 |
| 20260507123958 | 62 | 22 | 3.5 | 8.7 | 0.00 | 0.01 | 0.00 | 17 | 1015.7 |
| 20260507123457 | 62 | 91 | 3.5 | 7.8 | 0.00 | 0.01 | 0.00 | 17 | 1015.6 |
| 20260507122458 | 63 | 46 | 4.3 | 10.4 | 0.00 | 0.01 | 0.00 | 17 | 1015.4 |
| 20260507121500 | 63 | 358 | 2.6 | 8.7 | 0.00 | 0.01 | 0.00 | 17 | 1015.0 |
| 20260507120958 | 63 | 62 | 3.5 | 11.3 | 0.00 | 0.01 | 0.00 | 17 | 1015.1 |
| 20260507120500 | 63 | 69 | 2.6 | 11.3 | 0.00 | 0.01 | 0.00 | 17 | 1015.1 |
| 20260507115957 | 63 | 4 | 4.3 | 13.0 | 0.00 | 0.01 | 0.00 | 17 | 1014.9 |
| 20260507115458 | 63 | 9 | 2.6 | 13.0 | 0.00 | 0.01 | 0.00 | 17 | 1014.8 |
| 20260507114957 | 63 | 27 | 3.5 | 13.0 | 0.00 | 0.01 | 0.00 | 17 | 1014.4 |
| 20260507114458 | 63 | 31 | 4.3 | 10.4 | 0.00 | 0.01 | 0.00 | 17 | 1014.2 |
| 20260507113958 | 63 | 357 | 2.6 | 7.8 | 0.00 | 0.01 | 0.00 | 17 | 1014.0 |
| 20260507112958 | 63 | 32 | 2.6 | 8.7 | 0.00 | 0.01 | 0.00 | 17 | 1013.8 |
| 20260507112457 | 64 | 51 | 2.6 | 8.7 | 0.00 | 0.01 | 0.00 | 17 | 1013.9 |
| 20260507111958 | 64 | 69 | 2.6 | 7.0 | 0.00 | 0.01 | 0.00 | 17 | 1013.9 |
| 20260507111457 | 64 | 15 | 2.6 | 7.0 | 0.00 | 0.01 | 0.00 | 17 | 1013.9 |
| 20260507110958 | 64 | 25 | 1.7 | 6.1 | 0.00 | 0.01 | 0.00 | 17 | 1013.7 |
| 20260507105458 | 64 | 45 | 1.7 | 8.7 | 0.00 | 0.01 | 0.00 | 17 | 1013.9 |
| 20260507104959 | 64 | 61 | 2.6 | 8.7 | 0.00 | 0.01 | 0.00 | 17 | 1014.1 |
| 20260507104458 | 64 | 42 | 2.6 | 10.4 | 0.00 | 0.01 | 0.00 | 17 | 1013.9 |
| 20260507103958 | 64 | 17 | 2.6 | 10.4 | 0.00 | 0.01 | 0.00 | 17 | 1013.8 |
| 20260507103458 | 64 | 68 | 2.6 | 7.8 | 0.00 | 0.01 | 0.00 | 17 | 1013.8 |
| 20260507103001 | 64 | 66 | 2.6 | 7.8 | 0.00 | 0.01 | 0.00 | 17 | 1013.7 |
| 20260507102457 | 64 | 30 | 1.7 | 8.7 | 0.00 | 0.01 | 0.00 | 17 | 1013.6 |
| 20260507101958 | 64 | 47 | 1.7 | 10.4 | 0.00 | 0.01 | 0.00 | 17 | 1013.6 |
| 20260507101457 | 64 | 80 | 1.7 | 10.4 | 0.00 | 0.01 | 0.00 | 17 | 1013.4 |
| 20260507100501 | 64 | 17 | 2.6 | 7.8 | 0.00 | 0.01 | 0.00 | 17 | 1013.6 |
| 20260507095957 | 64 | 84 | 2.6 | 7.8 | 0.00 | 0.01 | 0.00 | 17 | 1013.6 |
| 20260507094958 | 64 | 1 | 2.6 | 8.7 | 0.00 | 0.01 | 0.00 | 17 | 1013.6 |
| 20260507094457 | 64 | 16 | 1.7 | 7.8 | 0.00 | 0.01 | 0.00 | 17 | 1013.5 |
| 20260507094000 | 64 | 51 | 2.6 | 7.8 | 0.00 | 0.01 | 0.00 | 17 | 1013.6 |
| 20260507093457 | 64 | 68 | 0.9 | 7.8 | 0.00 | 0.01 | 0.00 | 17 | 1013.7 |
| 20260507092958 | 64 | 65 | 0.9 | 7.0 | 0.00 | 0.01 | 0.00 | 17 | 1013.8 |
| 20260507091958 | 64 | 347 | 1.7 | 7.0 | 0.00 | 0.01 | 0.00 | 17 | 1013.8 |
| 20260507091459 | 64 | 84 | 2.6 | 7.0 | 0.00 | 0.01 | 0.00 | 17 | 1013.8 |
| 20260507090958 | 64 | 93 | 2.6 | 6.1 | 0.00 | 0.01 | 0.00 | 17 | 1014.0 |
| 20260507090500 | 64 | 0 | 0.9 | 6.1 | 0.00 | 0.01 | 0.00 | 17 | 1013.7 |
| 20260507085958 | 64 | 84 | 0.9 | 4.3 | 0.00 | 0.01 | 0.00 | 17 | 1013.7 |
| 20260507085458 | 64 | 92 | 0.9 | 2.6 | 0.00 | 0.01 | 0.00 | 17 | 1013.6 |
| 20260507085000 | 64 | 94 | 0.9 | 2.6 | 0.00 | 0.01 | 0.00 | 17 | 1013.4 |
| 20260507084458 | 64 | 18 | 1.7 | 10.4 | 0.00 | 0.01 | 0.00 | 17 | 1013.5 |
| 20260507083958 | 64 | 74 | 1.7 | 10.4 | 0.00 | 0.01 | 0.00 | 17 | 1013.4 |
| 20260507083458 | 64 | 55 | 2.6 | 10.4 | 0.00 | 0.01 | 0.00 | 17 | 1013.5 |
| 20260507083000 | 64 | 22 | 1.7 | 8.7 | 0.00 | 0.01 | 0.00 | 17 | 1013.6 |
| 20260507081958 | 64 | 23 | 2.6 | 8.7 | 0.00 | 0.01 | 0.00 | 17 | 1013.4 |
| 20260507081457 | 64 | 25 | 3.5 | 8.7 | 0.00 | 0.01 | 0.00 | 17 | 1013.2 |